Regional Weather Roundup
Issued by NWS Jackson, KY

Home | Current Version | Previous Version | Text Only | Print | Product List | Glossary Off
Versions: 1 2 3 4 5 6 7 8 9 10 11 12 13 14 15 16 17 18 19 20 21 22 23 24 25 26 27 28

251
ASUS43 KJKL 211210
RWRJKL

EAST KENTUCKY HOURLY WEATHER ROUNDUP
NATIONAL WEATHER SERVICE JACKSON KY
800 AM EDT THU MAY 21 2015

NOTE: "FAIR" INDICATES FEW OR NO CLOUDS BELOW 12,000 FEET WITH
NO SIGNIFICANT WEATHER AND/OR OBSTRUCTIONS TO VISIBILITY.

* THESE REPORTS ARE NOT UNDER NWS QUALITY CONTROL AND MAY NOT
  REPORT WEATHER SUCH AS PRECIPITATION AND FOG.

KYZ079-080-083-085-087-088-110-112-115-119-120-211300
...EASTERN KENTUCKY...

CITY           SKY/WX    TMP DP  RH WIND       PRES   REMARKS
JACKSON        CLOUDY    54  52  93 NW6       29.97R FOG
6HR MIN TEMP:  54; 6HR MAX TEMP:  60; 6HR PCP:  0.04;

LONDON         CLOUDY    56  48  74 W8        30.00R
6HR MIN TEMP:  55; 6HR MAX TEMP:  64;

SOMERSET*      DRIZZLE   52  52 100 NW5       30.04R
MONTICELLO*    CLOUDY    54  54 100 NW7       30.06R FOG
6HR MIN TEMP:  54; 6HR MAX TEMP:  62; 6HR PCP:  0.01;

MIDDLESBORO*   CLOUDY    60  57  90 NW12      29.97R
6HR MIN TEMP:  60; 6HR MAX TEMP:  66; 6HR PCP:  0.03;

HARLAN APT*    CLOUDY    59  55  88 NW7       29.96R
HAZARD APT*    CLOUDY    55  55 100 CALM      29.97R FOG
BLACK MTN*       N/A     52  52 100 NE5         N/A
PIKEVILLE APT* DRIZZLE   52  52 100 NW6       29.96R
BIG SANDY*     DRIZZLE   52  52  99 NW5       29.96R
6HR MIN TEMP:  52; 6HR MAX TEMP:  57;

MOREHEAD APT*  CLOUDY    52  46  82 N6        30.01R
$$

KYZ035-036-041-042-044-050-067-078-099-211300
...CENTRAL KENTUCKY...

CITY           SKY/WX    TMP DP  RH WIND       PRES   REMARKS
MT STERLING*   CLOUDY    52  46  82 N7        30.02R
FLEMING/MASON* CLOUDY    50  46  87 N8        30.02R
DANVILLE*      DRIZZLE   50  50 100 NW8       30.04R
RICHMOND*      CLOUDY    52  48  87 NW5       30.01R
LEXINGTON      CLOUDY    50  48  93 NW9       30.02R FOG
6HR MIN TEMP:  50; 6HR MAX TEMP:  56;

FRANKFORT      CLOUDY    52  46  80 NW7       30.02R
6HR MIN TEMP:  52; 6HR MAX TEMP:  56;

$$

KYZ091>093-OHZ055-061-077-WVZ005-015-034-035-042-211300
...SOUTHERN OHIO/WEST VIRGINIA...

CITY           SKY/WX    TMP DP  RH WIND       PRES   REMARKS
COVINGTON      CLOUDY    50  44  80 N6        30.03R
COLUMBUS       CLOUDY    48  42  80 N8        30.01R
DAYTON         CLOUDY    48  42  80 N8        30.05R
WILMINGTON     CLOUDY    48  43  82 N8        30.02R
HUNTINGTON     LGT RAIN  50  49  96 N6        29.96R FOG
CHARLESTON     LGT RAIN  53  51  93 N6        29.94R VSB 1
PINEVILLE*     DRIZZLE   58  58 100 MISG      29.96R
BECKLEY        LGT RAIN  56  51  84 SE3       29.93R
BLUEFIELD      RAIN      57  52  83 CALM      29.95R
$$

VAZ002-007-008-TNZ017-027-036-066-071-211300
...SOUTHWEST VIRGINIA/EAST TENNESSEE...

CITY           SKY/WX    TMP DP  RH WIND       PRES   REMARKS
WISE*          CLOUDY    55  55 100 NW5       29.97R
JONESVILLE*    CLOUDY    61  57  88 W6        29.97R
ABINGDON*      DRIZZLE   60  59  98 CALM      29.93R
BRISTOL        LGT RAIN  61  59  93 CALM      29.92R FOG
KNOXVILLE      PTSUNNY   63  59  87 W14       29.96R
OAK RIDGE      CLOUDY    63  59  87 S3        29.98R
CROSSVILLE     CLOUDY    56  53  90 NW13G23   30.03R
NASHVILLE      DRIZZLE   53  51  93 NW10      30.08R
$$

...KEY TO REMARKS...
VSB - VISIBILITY IN MILES
WCI - WIND CHILL INDEX
HX  - HEAT INDEX

$$



USA.gov is the U.S. government's official web portal to all federal, state and local government web resources and services.